Location: Barcelona
(41.3830°N, 2.1830°E)
Time: 08:59:28
(UTC+01:00)

ISS - Pass Details

Date: 15 November 2017
Orbit: 402 x 407 km, 51.6° (Epoch: 21 November)

Event Time Altitude Azimuth Distance (km) Brightness Sun altitude
Exits shadow 06:28:01 23° 312° (NW) 906 -2.6 -13.6°
Maximum altitude 06:29:54 74° 34° (NE) 420 -3.8 -13.2°
Drops below altitude 10° 06:33:08 10° 120° (ESE) 1,448 0.3 -12.6°
Sets 06:35:12 0° 123° (ESE) 2,304 1.5 -12.3°
